DW6358 Weather Reports


time (UTC)temp
C
wind
direction
speed
KPH
gust
KPH
rain 1hr
cm
rain 24hr
cm
rain mn
cm
humidity
%
barometer
mb
20260505041329 14 348 17.7 25.7 0.00 0.23 0.00 76 1023.3
20260505040847 14 350 16.1 27.4 0.00 0.23 0.00 78 1023.3
20260505040325 14 354 17.7 27.4 0.00 0.23 0.00 78 1023.3
20260505035841 14 357 19.3 27.4 0.00 0.23 0.00 78 1023.3
20260505034824 14 328 19.3 27.4 0.00 0.23 0.00 78 1023.3
20260505033819 14 335 16.1 25.7 0.00 0.23 0.00 79 1023.3
20260505033337 14 335 14.5 27.4 0.00 0.23 0.00 80 1023.4
20260505032831 14 346 19.3 27.4 0.00 0.23 0.00 78 1023.4
20260505032330 14 321 16.1 27.4 0.00 0.23 0.00 78 1023.4
20260505031827 14 340 19.3 27.4 0.00 0.23 0.00 78 1023.4
20260505031325 14 346 14.5 27.4 0.00 0.23 0.00 78 1023.4
20260505030843 14 18 17.7 27.4 0.00 0.23 0.00 78 1023.4
20260505030342 14 336 16.1 22.5 0.00 0.23 0.00 79 1023.5
20260505025820 14 344 16.1 22.5 0.00 0.23 0.00 78 1023.5
20260505025318 14 335 14.5 22.5 0.00 0.23 0.00 80 1023.5
20260505024816 14 321 9.7 25.7 0.00 0.23 0.00 80 1023.5
20260505024313 14 350 17.7 25.7 0.00 0.23 0.00 78 1023.5
20260505023832 14 340 17.7 24.1 0.00 0.23 0.00 78 1023.5
20260505023331 14 8 17.7 24.1 0.00 0.23 0.00 77 1023.5
20260505022342 14 338 20.9 25.7 0.00 0.23 0.00 78 1023.6
20260505021818 14 337 17.7 25.7 0.00 0.23 0.00 76 1023.7
20260505021315 14 328 16.1 27.4 0.00 0.23 0.00 78 1023.8
20260505020831 14 334 17.7 25.7 0.00 0.23 0.00 77 1023.8
20260505020329 14 339 17.7 24.1 0.00 0.23 0.00 75 1023.9
20260505015850 14 335 17.7 24.1 0.00 0.23 0.00 77 1023.9
20260505014827 14 324 17.7 25.7 0.00 0.23 0.00 77 1023.9
20260505014323 14 322 19.3 25.7 0.00 0.23 0.00 78 1023.9
20260505013820 14 331 19.3 27.4 0.00 0.23 0.00 77 1024.0
20260505013319 14 335 19.3 25.7 0.00 0.23 0.00 77 1024.0
20260505012813 14 344 17.7 24.1 0.00 0.23 0.00 78 1024.0
20260505012332 14 349 16.1 24.1 0.00 0.23 0.00 79 1024.1
20260505011829 14 353 16.1 24.1 0.00 0.23 0.00 77 1024.1
20260505011348 14 325 17.7 24.1 0.00 0.23 0.00 75 1024.2
20260505010842 14 335 17.7 24.1 0.00 0.23 0.00 76 1024.2
20260505010340 14 328 17.7 22.5 0.00 0.23 0.00 75 1024.3
20260505005833 14 331 16.1 22.5 0.00 0.23 0.00 76 1024.3
20260505005330 14 12 16.1 22.5 0.00 0.23 0.00 74 1024.4
20260505004849 14 359 16.1 22.5 0.00 0.23 0.00 73 1024.5
20260505004346 14 337 14.5 22.5 0.00 0.23 0.00 75 1024.5
20260505003823 14 351 16.1 24.1 0.00 0.23 0.00 74 1024.6
20260505003339 14 343 16.1 24.1 0.00 0.23 0.00 75 1024.6
20260505002814 14 342 14.5 24.1 0.00 0.23 0.00 75 1024.6
20260505002332 15 339 16.1 22.5 0.00 0.23 0.00 76 1024.7
20260505001850 15 347 14.5 22.5 0.00 0.23 0.00 75 1024.6
20260505001326 15 323 16.1 22.5 0.00 0.23 0.00 74 1024.7
20260505000824 15 354 16.1 22.5 0.00 0.23 0.00 75 1024.7
20260505000322 15 360 16.1 22.5 0.00 0.23 0.00 75 1024.7
20260504235816 15 348 16.1 25.7 0.00 0.23 0.00 75 1024.7
20260504235314 15 337 16.1 25.7 0.00 0.23 0.00 75 1024.8
20260504234830 15 340 16.1 25.7 0.00 0.23 0.00 75 1024.7
20260504234330 15 335 12.9 24.1 0.00 0.23 0.00 75 1024.7
20260504233828 15 323 16.1 24.1 0.00 0.23 0.00 74 1024.8
20260504233327 15 337 14.5 24.1 0.00 0.23 0.00 75 1024.8
20260504232825 15 334 14.5 25.7 0.00 0.23 0.00 75 1024.8
20260504232322 15 345 14.5 25.7 0.00 0.23 0.00 75 1024.7
20260504231821 15 335 14.5 24.1 0.00 0.23 0.00 73 1024.8
20260504231319 15 349 16.1 24.1 0.00 0.23 0.00 73 1024.8
20260504230837 15 354 16.1 24.1 0.00 0.23 0.00 74 1024.8
20260504230334 15 338 17.7 22.5 0.00 0.23 0.00 75 1024.8
20260504225823 15 344 14.5 24.1 0.00 0.23 0.23 75 1024.8
20260504225321 15 356 16.1 24.1 0.00 0.23 0.23 77 1024.8
20260504224819 15 347 19.3 25.7 0.00 0.23 0.23 77 1024.9
20260504224316 15 334 19.3 25.7 0.00 0.23 0.23 77 1024.9
20260504223835 15 326 16.1 25.7 0.00 0.23 0.23 74 1024.9
20260504223328 15 316 16.1 25.7 0.00 0.23 0.23 76 1024.9
20260504222847 15 338 16.1 22.5 0.00 0.23 0.23 74 1024.9
20260504222344 15 15 16.1 22.5 0.00 0.23 0.23 75 1024.9
20260504221839 15 347 16.1 22.5 0.00 0.23 0.23 74 1024.9
20260504221317 15 329 16.1 22.5 0.00 0.23 0.23 75 1024.9
20260504220814 15 344 12.9 22.5 0.00 0.23 0.23 77 1024.9
20260504220334 15 342 14.5 22.5 0.00 0.23 0.23 76 1024.9
20260504215831 15 335 16.1 22.5 0.00 0.23 0.23 76 1024.9
20260504215328 15 333 14.5 22.5 0.00 0.23 0.23 75 1024.9
20260504214825 15 349 16.1 25.7 0.00 0.23 0.23 75 1024.9
20260504214323 15 328 17.7 25.7 0.00 0.23 0.23 73 1024.9
20260504213821 15 345 12.9 24.1 0.00 0.23 0.23 75 1024.8
20260504213319 15 345 17.7 25.7 0.00 0.23 0.23 76 1024.9
20260504212815 15 333 16.1 27.4 0.00 0.23 0.23 76 1024.9
20260504212314 15 349 17.7 27.4 0.00 0.23 0.23 75 1024.8
20260504211831 15 341 17.7 25.7 0.00 0.23 0.23 75 1024.8
20260504211328 15 342 17.7 24.1 0.00 0.23 0.23 76 1024.8
20260504210825 15 292 16.1 24.1 0.00 0.23 0.23 76 1024.8
20260504210324 15 342 16.1 25.7 0.00 0.23 0.23 76 1024.8
20260504205819 15 343 16.1 27.4 0.00 0.23 0.23 75 1024.7
20260504205317 15 354 17.7 27.4 0.00 0.23 0.23 76 1024.7
20260504204814 15 310 16.1 25.7 0.00 0.23 0.23 76 1024.6
20260504204332 15 333 17.7 25.7 0.00 0.23 0.23 76 1024.6
20260504203913 15 345 19.3 25.7 0.00 0.23 0.23 75 1024.5
20260504203328 15 338 19.3 25.7 0.00 0.23 0.23 75 1024.4
20260504202824 15 320 16.1 24.1 0.00 0.23 0.23 75 1024.3
20260504202322 15 318 17.7 25.7 0.00 0.23 0.23 75 1024.3
20260504201820 15 326 16.1 27.4 0.00 0.23 0.23 76 1024.3
20260504201318 15 321 20.9 27.4 0.00 0.23 0.23 75 1024.2
20260504200815 15 334 17.7 24.1 0.00 0.23 0.23 76 1024.1
20260504200334 15 352 19.3 29.0 0.00 0.23 0.23 74 1024.1
20260504195831 15 330 19.3 29.0 0.00 0.23 0.23 75 1024.1
20260504195329 15 300 19.3 25.7 0.00 0.23 0.23 76 1024.1
20260504194826 15 308 17.7 24.1 0.00 0.23 0.23 76 1024.0
20260504194324 15 349 16.1 24.1 0.00 0.23 0.23 75 1024.1
20260504193823 15 335 17.7 24.1 0.00 0.23 0.23 75 1023.9
20260504193320 15 327 17.7 25.7 0.00 0.23 0.23 75 1023.9
20260504192815 15 349 19.3 27.4 0.00 0.23 0.23 75 1023.9
20260504192313 15 357 17.7 27.4 0.00 0.23 0.23 76 1023.9
20260504191813 15 335 17.7 25.7 0.00 0.23 0.23 76 1023.9
20260504191329 15 341 16.1 25.7 0.00 0.23 0.23 75 1023.9
20260504190827 15 343 17.7 25.7 0.00 0.23 0.23 75 1023.8
20260504190326 15 351 19.3 25.7 0.00 0.23 0.23 75 1023.8
20260504185843 15 351 17.7 25.7 0.00 0.23 0.23 74 1023.7
20260504185318 16 306 17.7 25.7 0.00 0.23 0.23 73 1023.7
20260504184817 16 346 16.1 25.7 0.00 0.23 0.23 73 1023.7
20260504184313 16 347 17.7 25.7 0.00 0.23 0.23 72 1023.6
20260504183832 16 332 17.7 27.4 0.00 0.23 0.23 72 1023.7
20260504183330 16 328 22.5 27.4 0.00 0.23 0.23 72 1023.7
20260504182829 16 334 17.7 25.7 0.00 0.23 0.23 73 1023.7
20260504182326 16 335 19.3 27.4 0.00 0.23 0.23 72 1023.7
20260504181824 16 332 17.7 25.7 0.00 0.23 0.23 74 1023.7
20260504181344 16 331 19.3 25.7 0.00 0.23 0.23 74 1023.8
20260504180857 16 330 20.9 25.7 0.00 0.23 0.23 74 1023.8
20260504180352 16 340 17.7 24.1 0.00 0.23 0.23 75 1023.8
20260504175830 16 327 14.5 24.1 0.00 0.23 0.23 75 1023.8
20260504175327 16 332 17.7 24.1 0.00 0.23 0.23 74 1023.8
20260504174826 16 326 17.7 24.1 0.00 0.23 0.23 72 1023.8
20260504174323 16 348 19.3 25.7 0.00 0.23 0.23 73 1023.9
20260504173821 16 340 19.3 25.7 0.00 0.23 0.23 72 1023.9
20260504173321 16 346 17.7 25.7 0.00 0.23 0.23 72 1023.9
20260504172817 16 337 20.9 25.7 0.00 0.23 0.23 72 1023.9
20260504172334 16 332 16.1 25.7 0.00 0.23 0.23 75 1024.0
20260504171851 16 335 14.5 22.5 0.00 0.23 0.23 73 1024.0
20260504171349 16 328 17.7 22.5 0.00 0.23 0.23 71 1024.0
20260504170823 16 313 17.7 22.5 0.00 0.23 0.23 68 1024.0
20260504170322 16 337 14.5 22.5 0.00 0.23 0.23 69 1024.0
20260504160323 16 325 19.3 25.7 0.00 0.23 0.23 72 1023.9
20260504150833 16 333 16.1 20.9 0.00 0.23 0.23 70 1024.1
20260504150353 16 332 16.1 22.5 0.00 0.23 0.23 72 1024.0
20260504141320 16 333 17.7 24.1 0.00 0.23 0.23 73 1024.1
20260504140821 16 8 17.7 22.5 0.00 0.23 0.23 74 1024.1
20260504140353 16 325 17.7 25.7 0.00 0.23 0.23 74 1024.1
20260504130822 16 342 17.7 25.7 0.00 0.23 0.23 74 1024.3
20260504130342 16 330 19.3 25.7 0.00 0.23 0.23 74 1024.2
20260504110314 16 346 16.1 22.5 0.00 0.23 0.23 72 1024.4
20260504100332 16 17 12.9 20.9 0.00 0.25 0.23 73 1023.9
20260504081828 15 16 14.5 22.5 0.03 0.36 0.23 76 1023.4
20260504081326 15 305 12.9 22.5 0.03 0.36 0.23 77 1023.4
20260504080845 15 341 9.7 24.1 0.03 0.36 0.23 77 1023.3
20260504080341 15 63 12.9 24.1 0.03 0.36 0.23 78 1023.3
20260504070341 13 16 4.8 14.5 0.13 0.33 0.20 85 1022.8
20260504050320 12 33 4.8 14.5 0.08 0.20 0.08 90 1022.0
20260504045821 13 330 6.4 19.3 0.08 0.20 0.08 90 1022.0
20260504045319 13 359 8.0 35.4 0.08 0.20 0.08 89 1022.0
20260504044815 13 350 11.3 38.6 0.05 0.18 0.05 88 1021.9
20260504044313 14 354 25.7 33.8 0.00 0.13 0.00 87 1021.6
20260504043828 13 330 6.4 20.9 0.00 0.13 0.00 83 1021.8
20260504043347 14 350 9.7 25.7 0.00 0.13 0.00 84 1021.8
20260504042822 14 340 12.9 25.7 0.00 0.13 0.00 82 1021.8
20260504042339 15 335 17.7 20.9 0.00 0.13 0.00 79 1021.8
20260504041815 15 343 12.9 17.7 0.00 0.13 0.00 79 1021.8